Hourly Weather Fort Pierre

Today, 16 June, Wednesday

Time Temperature Precipitation Wind Pressure Humidity
00:00 +27°C° 0 mm 7 mps 717 mmHg 70%
01:00 +27°C° 0 mm 7 mps 717 mmHg 74%
02:00 +26°C° 0 mm 7 mps 717 mmHg 78%
03:00 +26°C° 0 mm 7 mps 716 mmHg 78%
04:00 +26°C° 0 mm 6 mps 716 mmHg 78%
05:00 +26°C° 0 mm 6 mps 716 mmHg 77%
06:00 +28°C° 0 mm 6 mps 716 mmHg 64%
07:00 +32°C° 0 mm 5 mps 716 mmHg 51%
08:00 +35°C° 0 mm 5 mps 716 mmHg 37%
09:00 +36°C° 0 mm 6 mps 716 mmHg 36%
10:00 +38°C° 0 mm 6 mps 717 mmHg 34%
11:00 +40°C° 0 mm 7 mps 717 mmHg 32%
12:00 +40°C° 0 mm 8 mps 717 mmHg 32%
13:00 +40°C° 0 mm 8 mps 717 mmHg 32%
14:00 +40°C° 0 mm 9 mps 717 mmHg 32%
15:00 +39°C° 0 mm 9 mps 717 mmHg 32%
16:00 +38°C° 0 mm 9 mps 718 mmHg 31%
17:00 +37°C° 0 mm 8 mps 718 mmHg 30%
18:00 +34°C° 0 mm 7 mps 718 mmHg 30%
19:00 +32°C° 0 mm 7 mps 718 mmHg 29%
20:00 +28°C° 0 mm 6 mps 719 mmHg 29%
21:00 +26°C° 0 mm 5 mps 719 mmHg 31%
22:00 +25°C° 0 mm 4 mps 719 mmHg 34%
23:00 +22°C° 0 mm 3 mps 719 mmHg 37%

Tomorrow, 17 June, Thursday

Time Temperature Precipitation Wind Pressure Humidity
00:00 +21°C° 0 mm 3 mps 719 mmHg 38%
01:00 +21°C° 0 mm 3 mps 719 mmHg 39%
02:00 +20°C° 0 mm 3 mps 718 mmHg 41%
03:00 +19°C° 0 mm 2 mps 718 mmHg 44%
04:00 +19°C° 0 mm 2 mps 718 mmHg 47%
05:00 +19°C° 0 mm 2 mps 718 mmHg 51%
06:00 +20°C° 0.1 mm 2 mps 719 mmHg 51%
07:00 +23°C° 0.1 mm 2 mps 719 mmHg 51%
08:00 +24°C° 0.1 mm 2 mps 719 mmHg 51%
09:00 +26°C° 0 mm 2 mps 719 mmHg 44%
10:00 +28°C° 0 mm 2 mps 719 mmHg 38%
11:00 +30°C° 0 mm 2 mps 718 mmHg 31%
12:00 +31°C° 0 mm 2 mps 718 mmHg 29%
13:00 +32°C° 0 mm 1 mps 718 mmHg 27%
14:00 +31°C° 0 mm 0 mps 717 mmHg 25%
15:00 +34°C° 0 mm 1 mps 717 mmHg 25%
16:00 +34°C° 0 mm 1 mps 716 mmHg 26%
17:00 +34°C° 0 mm 1 mps 716 mmHg 26%
18:00 +31°C° 0 mm 2 mps 716 mmHg 31%
19:00 +29°C° 0 mm 2 mps 715 mmHg 36%
20:00 +27°C° 0 mm 3 mps 715 mmHg 41%
21:00 +26°C° 0 mm 3 mps 715 mmHg 42%
22:00 +25°C° 0 mm 2 mps 716 mmHg 43%
23:00 +25°C° 0 mm 2 mps 716 mmHg 44%

Day after tomorrow, 18 June, Friday

Time Temperature Precipitation Wind Pressure Humidity
00:00 +24°C° 0 mm 2 mps 716 mmHg 46%
01:00 +23°C° 0 mm 2 mps 716 mmHg 49%
02:00 +23°C° 0 mm 2 mps 717 mmHg 51%
03:00 +21°C° 0 mm 3 mps 717 mmHg 51%
04:00 +20°C° 0 mm 4 mps 717 mmHg 50%
05:00 +20°C° 0 mm 4 mps 718 mmHg 49%
06:00 +22°C° 0 mm 5 mps 718 mmHg 43%
07:00 +25°C° 0 mm 5 mps 719 mmHg 37%
08:00 +27°C° 0 mm 6 mps 719 mmHg 31%
09:00 +28°C° 0 mm 5 mps 720 mmHg 29%
10:00 +29°C° 0 mm 5 mps 720 mmHg 26%
11:00 +32°C° 0 mm 4 mps 720 mmHg 23%
12:00 +32°C° 0 mm 4 mps 720 mmHg 22%
13:00 +33°C° 0 mm 4 mps 719 mmHg 21%
14:00 +33°C° 0 mm 4 mps 719 mmHg 20%
15:00 +33°C° 0 mm 4 mps 719 mmHg 21%
16:00 +33°C° 0 mm 4 mps 719 mmHg 21%
17:00 +33°C° 0 mm 3 mps 719 mmHg 21%
18:00 +29°C° 0 mm 3 mps 718 mmHg 25%
19:00 +27°C° 0 mm 3 mps 718 mmHg 29%
20:00 +25°C° 0 mm 3 mps 718 mmHg 33%
21:00 +24°C° 0 mm 3 mps 718 mmHg 36%
22:00 +22°C° 0 mm 3 mps 718 mmHg 40%
23:00 +20°C° 0 mm 3 mps 718 mmHg 43%

19 June, Saturday

Time Temperature Precipitation Wind Pressure Humidity
00:00 +19°C° 0.1 mm 3 mps 718 mmHg 48%
01:00 +19°C° 0.1 mm 3 mps 718 mmHg 54%
02:00 +18°C° 0.1 mm 2 mps 718 mmHg 59%
03:00 +18°C° 0.1 mm 3 mps 717 mmHg 61%
04:00 +18°C° 0.1 mm 4 mps 717 mmHg 63%
05:00 +18°C° 0.1 mm 4 mps 717 mmHg 65%
06:00 +20°C° 0.6 mm 5 mps 716 mmHg 63%
07:00 +22°C° 0.6 mm 6 mps 716 mmHg 60%
08:00 +24°C° 0.6 mm 7 mps 716 mmHg 57%
09:00 +27°C° 0.4 mm 7 mps 715 mmHg 54%
10:00 +29°C° 0.4 mm 8 mps 715 mmHg 51%
11:00 +31°C° 0.4 mm 9 mps 714 mmHg 48%
12:00 +32°C° 0.1 mm 9 mps 713 mmHg 46%
13:00 +33°C° 0.1 mm 10 mps 712 mmHg 43%
14:00 +34°C° 0.1 mm 10 mps 712 mmHg 41%
15:00 +34°C° 0.1 mm 11 mps 711 mmHg 43%
16:00 +33°C° 0.1 mm 11 mps 709 mmHg 45%
17:00 +33°C° 0.1 mm 11 mps 708 mmHg 47%
18:00 +29°C° 5.1 mm 10 mps 709 mmHg 62%
19:00 +26°C° 5.1 mm 9 mps 709 mmHg 76%
20:00 +22°C° 5.1 mm 9 mps 709 mmHg 91%
21:00 +22°C° 0.1 mm 7 mps 709 mmHg 92%
22:00 +22°C° 0.1 mm 5 mps 709 mmHg 93%
23:00 +22°C° 0.1 mm 3 mps 709 mmHg 94%

20 June, Sunday

Time Temperature Precipitation Wind Pressure Humidity
00:00 +21°C° 0 mm 4 mps 709 mmHg 85%
01:00 +21°C° 0 mm 6 mps 710 mmHg 75%
02:00 +20°C° 0 mm 7 mps 710 mmHg 66%
03:00 +18°C° 0 mm 8 mps 711 mmHg 65%
04:00 +17°C° 0 mm 8 mps 712 mmHg 64%
05:00 +17°C° 0 mm 8 mps 712 mmHg 63%
06:00 +16°C° 0.1 mm 9 mps 713 mmHg 63%
07:00 +16°C° 0.1 mm 9 mps 713 mmHg 63%
08:00 +16°C° 0.1 mm 9 mps 714 mmHg 64%
09:00 +17°C° 0 mm 10 mps 714 mmHg 58%
10:00 +19°C° 0 mm 11 mps 714 mmHg 52%
11:00 +21°C° 0 mm 12 mps 715 mmHg 46%
12:00 +21°C° 0 mm 12 mps 715 mmHg 46%
13:00 +21°C° 0 mm 12 mps 715 mmHg 46%
14:00 +21°C° 0 mm 12 mps 715 mmHg 46%
15:00 +21°C° 0 mm 10 mps 715 mmHg 46%
16:00 +21°C° 0 mm 9 mps 716 mmHg 46%
17:00 +21°C° 0 mm 8 mps 716 mmHg 46%
18:00 +20°C° 0 mm 6 mps 716 mmHg 51%
19:00 +18°C° 0 mm 4 mps 716 mmHg 55%
20:00 +17°C° 0 mm 3 mps 717 mmHg 60%
21:00 +15°C° 0.2 mm 4 mps 717 mmHg 67%
22:00 +15°C° 0.2 mm 4 mps 718 mmHg 73%
23:00 +14°C° 0.2 mm 5 mps 718 mmHg 80%

21 June, Monday

Time Temperature Precipitation Wind Pressure Humidity
00:00 +14°C° 0 mm 4 mps 718 mmHg 79%
01:00 +13°C° 0 mm 4 mps 718 mmHg 78%
02:00 +13°C° 0 mm 3 mps 719 mmHg 78%
03:00 +12°C° 0.1 mm 3 mps 719 mmHg 80%
04:00 +12°C° 0.1 mm 4 mps 719 mmHg 83%
05:00 +12°C° 0.1 mm 4 mps 720 mmHg 86%
06:00 +13°C° 0.2 mm 5 mps 720 mmHg 77%
07:00 +14°C° 0.2 mm 6 mps 720 mmHg 68%
08:00 +14°C° 0.2 mm 7 mps 721 mmHg 58%
09:00 +16°C° 0 mm 7 mps 721 mmHg 49%
10:00 +18°C° 0 mm 7 mps 720 mmHg 40%
11:00 +20°C° 0 mm 7 mps 720 mmHg 31%
12:00 +21°C° 0 mm 7 mps 720 mmHg 30%
13:00 +21°C° 0 mm 7 mps 720 mmHg 29%
14:00 +22°C° 0 mm 7 mps 720 mmHg 27%
15:00 +22°C° 0 mm 6 mps 719 mmHg 27%
16:00 +22°C° 0 mm 6 mps 719 mmHg 27%
17:00 +22°C° 0 mm 5 mps 718 mmHg 27%
18:00 +20°C° 0 mm 4 mps 718 mmHg 32%
19:00 +18°C° 0 mm 3 mps 718 mmHg 37%
20:00 +16°C° 0 mm 2 mps 718 mmHg 42%
21:00 +16°C° 0 mm 2 mps 718 mmHg 41%
22:00 +16°C° 0 mm 2 mps 718 mmHg 40%
23:00 +16°C° 0 mm 3 mps 717 mmHg 39%
Show more